#timestamp,LO_Frequency,Hit,StdDev 
1513328415.3,286047001.5,N
1513328435.2,286047005.4,P
1513328455.0,286047005.5,N
1513328455.9,286047005.5,N
1513328475.8,286047004.4,N
1513328495.6,286047005.7,N
1513328515.4,286047003.9,N
1513328535.3,286047002.6,N
1513328555.1,286047001.1,N
1513328575.8,286046998.8,N
1513328595.7,286046998.6,N
1513328615.5,286046998.6,N
1513328635.4,286047001.4,N
1513328655.2,286047004.2,N
1513328675.0,286047002.6,N
1513328675.9,286047002.6,N
1513328695.8,286047000.3,N
1513328715.6,286046996.7,N
1513328735.5,286046998.6,N
1513328755.3,286046998.2,N
1513328775.1,286046998.2,N
1513328795.9,286046999.3,N
1513328815.7,286046998.8,N
1513328835.5,286047002.7,N
1513328855.4,286047000.6,N
1513328875.2,286047000.2,N
1513328895.1,286046999.8,N
1513328896.0,286046999.8,N
1513328915.8,286046998.2,N
1513328935.6,286047000.6,N
1513328955.5,286047001.1,N
1513328975.3,286046999.3,N
1513328995.2,286047000.2,N
1513329015.9,286047000.9,N
1513329035.7,286047002.6,N
1513329055.6,286047001.3,N
1513329075.4,286047000.0,N
1513329095.3,286047001.9,N
1513329115.1,286047001.9,N
1513329116.0,286047001.9,N
1513329135.8,286047001.0,N
1513329155.7,286046998.8,N
1513329175.5,286047000.7,N
1513329195.3,286047000.3,N
1513329215.2,286047003.7,N
1513329235.0,286047003.6,N
1513329235.9,286047003.6,N
1513329255.8,286047004.1,N
1513329275.6,286047004.1,N
1513329295.4,286047001.6,N
1513329315.3,286047002.6,N
1513329335.1,286047002.2,N
1513329355.9,286047000.7,N
1513329375.7,286046997.8,N
1513329395.5,286046999.6,N
1513329415.4,286047000.8,N
1513329435.2,286046999.2,N
1513329455.0,286046997.8,N
1513329456.0,286046997.8,N
1513329475.8,286046997.7,N
1513329495.6,286046998.1,N
1513329515.5,286047000.6,N
1513329535.3,286047001.1,N
1513329555.1,286046996.5,N
1513329575.9,286046997.0,N
1513329595.7,286046998.4,N
1513329615.6,286046998.2,N
1513329635.4,286047000.1,N
1513329655.2,286047001.2,N
1513329675.1,286047000.2,N
1513329676.0,286047000.2,N
1513329695.8,286046999.9,N
1513329715.6,286047002.7,N
1513329735.5,286047003.6,N
1513329755.3,286047001.7,N
1513329775.2,286047000.8,N
1513329795.9,286047000.4,N
1513329815.7,286047002.1,N
1513329835.6,286047003.9,N
1513329855.4,286047000.8,N
1513329875.3,286046996.7,N
1513329895.1,286047000.2,N
1513329896.0,286047000.2,N
1513329915.8,286047004.4,N
1513329935.7,286047003.4,N
1513329955.5,286047005.3,N
1513329975.3,286047002.1,N
1513329995.2,286047001.8,N
1513330015.0,286047001.3,N
1513330015.9,286047001.3,N
1513330035.8,286046999.8,N
1513330055.6,286047001.5,N
1513330075.4,286047004.3,N
1513330095.3,286047003.8,N
1513330115.1,286047001.3,N
1513330135.9,286047002.4,N
1513330155.7,286047001.4,N
1513330175.5,286047003.7,N
1513330195.4,286047004.1,N
1513330215.2,286047002.1,N
1513330235.0,286047000.4,N
1513330236.0,286047000.4,N
1513330255.8,286047000.4,N
1513330275.6,286046999.6,N
1513330295.5,286046998.3,N
1513330315.3,286047002.7,N
1513330335.1,286047000.9,N
1513330355.9,286047000.0,N
1513330375.7,286047000.1,N
1513330395.6,286047001.1,N
1513330415.4,286047000.6,N
1513330435.2,286046999.4,N
1513330455.1,286046996.9,N
1513330456.0,286046996.9,N
1513330475.8,286046996.8,N
1513330495.7,286047001.1,N
1513330515.5,286046999.5,N
1513330535.3,286046997.9,N
1513330555.2,286046997.1,N
1513330575.0,286046997.8,N
1513330575.9,286046997.8,N
1513330595.7,286046996.8,N
1513330615.6,286046997.9,N
1513330635.4,286046997.5,N
1513330655.3,286046998.0,N
1513330675.1,286046994.9,N
1513330695.8,286046994.2,N
1513330715.7,286046994.6,N
1513330735.5,286046997.6,N
1513330785.4,286046995.1,E
1513330795.3,286046996.8,N
1513330815.1,286047002.1,P
1513330835.9,286047005.9,N
1513330855.7,286047001.8,N
1513330875.6,286046999.3,N
1513330895.4,286047000.8,N
1513330915.2,286047002.7,N
1513330935.1,286047000.4,N
1513330936.0,286047000.4,N
1513330955.8,286047000.8,N
1513330975.7,286046998.1,N
1513330995.5,286047000.2,N
1513331015.3,286046998.9,N
1513331035.2,286047000.2,N
1513331055.0,286047000.2,N
1513331055.9,286047000.2,N
1513331075.7,286047002.7,N
1513331095.6,286047001.9,N
1513331115.4,286047004.0,N
1513331135.3,286047002.4,N
1513331155.1,286047000.2,N
1513331156.0,286047000.2,N
1513331175.8,286047000.4,N
1513331195.7,286047001.9,N
1513331215.5,286047004.1,N
1513331235.4,286047003.0,N
1513331255.2,286047005.8,Y
1513331275.0,286047001.7,P
1513331275.9,286047001.7,P
1513331295.8,286047000.7,N
1513331315.6,286046998.1,Y
1513331335.5,286046998.3,P
1513331355.3,286046998.6,N
1513331375.1,286047001.2,N
1513331395.9,286046999.9,N
1513331415.7,286047001.5,N
1513331435.5,286047002.2,N
1513331455.4,286046998.7,N
1513331475.2,286046997.6,N
1513331495.1,286046995.5,N
1513331496.0,286046995.5,N
1513331515.8,286046993.3,Y
1513331535.6,286046996.1,P
1513331555.5,286046993.8,P
1513331575.3,286046996.4,N
1513331595.1,286046997.5,N
1513331615.9,286047001.1,N
1513331635.7,286046999.2,N
1513331655.6,286046998.3,N
1513331675.4,286047001.2,N
1513331695.2,286046998.3,N
1513331715.1,286046998.8,N
1513331716.0,286046998.8,N
1513331735.8,286046997.0,N
1513331755.7,286046997.6,N
1513331775.5,286046995.7,N
1513331795.3,286046995.3,N
1513331815.2,286046993.3,Y
1513331835.0,286046997.1,P
1513331835.9,286046997.1,P
1513331855.7,286047000.7,N
1513331875.6,286047003.9,N
1513331895.4,286047005.6,N
1513331915.3,286047005.1,N
1513331935.1,286047007.3,N
1513331936.0,286047007.3,N
1513331955.8,286047007.1,N
1513331975.7,286047007.6,N
1513331995.5,286047005.5,N
